Weather History for Moline, IL

Change the Weather History Date:

Monday, November 25, 2013

  Actual Average Record
Temperature  
Mean Temperature 29 °F 35 °F  
Max Temperature 35 °F 44 °F 67 °F (1896)
Min Temperature 22 °F 26 °F -2 °F (1977)
Degree Days  
Heating Degree Days 36 30  
Month to date heating degree days 655 590  
Since 1 July heating degree days 1154 1072  
Cooling Degree Days 0 0  
Month to date cooling degree days 0 0  
Year to date cooling degree days 998 1003  
Moisture  
Dew Point 20 °F    
Average Humidity 61    
Maximum Humidity 72    
Minimum Humidity 50    
Precipitation  
Precipitation T in 0.08 in 1.90 in (1915)
Month to date precipitation 1.22 2.15  
Year to date precipitation 38.02 35.37  
Snow  
Snow T in 0.10 in - ()
Month to date snowfall 0.6 0.7  
Since 1 July snowfall 1.0 0.7  
Since 1 September snowfall 1.0 0.7  
Snow Depth 0.00 in    
Sea Level Pressure  
Sea Level Pressure 30.18 in    
Wind  
Wind Speed 9 mph (SW)    
Max Wind Speed 18 mph    
Max Gust Speed 25 mph    
Visibility 9 miles    
Events Snow    
T = Trace of Precipitation, MM = Missing Value Source: NWS Daily Summary

Daily Weather History Graph

Daily Weather History Graph

Search for Another Location

Airport:

Trip Planner

Search our weather history database for the weather conditions in past years. The results will help you decide how hot, cold, wet, or windy it might be!

Date:

Astronomy

Nov. 25, 2013 Rise Set
Actual Time 7:02 AM CST 4:35 PM CST
Civil Twilight 6:32 AM CST 5:05 PM CST
Nautical Twilight 5:58 AM CST 5:39 PM CST
Astronomical Twilight 5:24 AM CST 6:13 PM CST
Moon No Moon Rise 12:16 PM CST (11/25)
Length of Visible Light 10h 33m
Length of Day
9h 32m
Waning Gibbous, 51% of the Moon is Illuminated
Nov 25
Waning Gibbous
Nov 25
Last Quarter
Dec 2
New
Dec 9
First Quarter
Dec 17
Full

Hourly Weather History & Observations

Time (CST) Temp. Windchill Dew Point Humidity Pressure Visibility Wind Dir Wind Speed Gust Speed Precip Events Conditions
12:52 AM 21.9 °F 13.4 °F 10.0 °F 60% 30.35 in 10.0 mi SSW 6.9 mph - N/A   Clear
1:52 AM 23.0 °F 13.1 °F 10.9 °F 60% 30.32 in 10.0 mi South 9.2 mph - N/A   Clear
2:52 AM 25.0 °F 16.3 °F 12.0 °F 58% 30.30 in 10.0 mi SSW 8.1 mph - N/A   Overcast
3:52 AM 26.1 °F 16.8 °F 12.9 °F 58% 30.27 in 10.0 mi SSW 9.2 mph - 0.00 in   Overcast
4:52 AM 26.1 °F 18.4 °F 12.0 °F 55% 30.25 in 10.0 mi SW 6.9 mph - N/A   Overcast
5:52 AM 27.0 °F 17.3 °F 12.0 °F 53% 30.23 in 10.0 mi SSW 10.4 mph 17.3 mph N/A   Overcast
6:52 AM 27.0 °F 14.7 °F 12.0 °F 53% 30.21 in 10.0 mi SSW 16.1 mph 23.0 mph N/A   Overcast
7:52 AM 28.0 °F 16.5 °F 12.9 °F 53% 30.20 in 10.0 mi SSW 15.0 mph 23.0 mph N/A   Overcast
8:52 AM 28.9 °F 19.8 °F 15.1 °F 56% 30.20 in 10.0 mi SW 10.4 mph 21.9 mph N/A   Overcast
9:52 AM 30.0 °F 19.1 °F 18.0 °F 61% 30.19 in 10.0 mi SW 15.0 mph - N/A   Overcast
10:06 AM 30.2 °F 19.8 °F 19.4 °F 64% 30.17 in 10.0 mi SW 13.8 mph - N/A   Overcast
10:43 AM 30.2 °F 19.3 °F 21.2 °F 69% 30.17 in 2.0 mi WSW 15.0 mph 21.9 mph 0.00 in Snow Light Snow
10:52 AM 30.0 °F 17.9 °F 21.9 °F 72% 30.19 in 2.0 mi SW 18.4 mph 23.0 mph 0.00 in Snow Light Snow
11:03 AM 30.2 °F 20.8 °F 23.0 °F 75% 30.16 in 3.0 mi WSW 11.5 mph 21.9 mph 0.00 in Snow Light Snow
11:13 AM 30.2 °F 19.3 °F 23.0 °F 75% 30.15 in 2.5 mi SW 15.0 mph 23.0 mph 0.00 in Snow Light Snow
11:52 AM 30.9 °F 20.2 °F 23.0 °F 72% 30.16 in 10.0 mi SW 15.0 mph 20.7 mph 0.00 in   Mostly Cloudy
12:09 PM 30.2 °F 19.8 °F 24.8 °F 80% 30.13 in 10.0 mi WSW 13.8 mph - N/A   Overcast
12:37 PM 30.2 °F 19.8 °F 24.8 °F 80% 30.12 in 10.0 mi WSW 13.8 mph 20.7 mph N/A   Overcast
12:52 PM 32.0 °F 23.0 °F 24.1 °F 73% 30.14 in 10.0 mi SW 11.5 mph 18.4 mph N/A   Overcast
1:52 PM 34.0 °F 24.6 °F 24.1 °F 67% 30.12 in 10.0 mi SW 13.8 mph 20.7 mph N/A   Overcast
2:52 PM 34.0 °F 25.5 °F 23.0 °F 64% 30.11 in 10.0 mi SW 11.5 mph - N/A   Overcast
3:52 PM 35.1 °F 27.4 °F 24.1 °F 64% 30.13 in 10.0 mi WSW 10.4 mph - N/A   Overcast
4:52 PM 34.0 °F 27.2 °F 24.1 °F 67% 30.14 in 10.0 mi WSW 8.1 mph - N/A   Overcast
5:52 PM 34.0 °F 29.8 °F 24.1 °F 67% 30.15 in 10.0 mi WSW 4.6 mph - N/A   Overcast
6:52 PM 34.0 °F 28.8 °F 24.1 °F 67% 30.15 in 10.0 mi SW 5.8 mph - N/A   Overcast
7:52 PM 33.1 °F 27.7 °F 24.1 °F 70% 30.16 in 10.0 mi SW 5.8 mph - N/A   Overcast
8:52 PM 30.9 °F - 23.0 °F 72% 30.16 in 10.0 mi Calm Calm - N/A   Partly Cloudy
9:52 PM 32.0 °F 25.6 °F 24.1 °F 73% 30.14 in 10.0 mi WSW 6.9 mph - N/A   Overcast
10:52 PM 32.0 °F 28.7 °F 24.1 °F 73% 30.13 in 10.0 mi West 3.5 mph - N/A   Overcast